Regional Weather Roundup
Issued by NWS State College, PA

Home | Current Version | Previous Version | Text Only | Print | Product List | Glossary On
Versions: 1 2 3 4 5 6 7 8 9 10 11 12 13 14 15 16 17 18 19 20 21 22 23 24 25 26 27 28 29 30 31 32 33 34 35 36 37 38 39 40 41 42 43 44 45 46 47 48 49 50
000
ASUS41 KCTP 162210
RWRCTP

REGIONAL WEATHER ROUNDUP
NATIONAL WEATHER SERVICE STATE COLLEGE PA
600 PM EDT WED APR 16 2014

Note: "fair" indicates few or no clouds below 12,000 feet with no
significant weather and/or obstructions to visibility.

* = STATION THAT DOES NOT REPORT PRECIPITATION /E.G. RAIN...SNOW...ETC/
    THUNDER OR FOG.

PAZ002>004-007>009-013>016-020>023-029>032-162300-
WESTERN PENNSYLVANIA

CITY           SKY/WX    TMP DP  RH WIND       PRES   REMARKS
ERIE           SUNNY     35  15  44 NE13      30.46S
MEADVILLE      NOT AVBL
FRANKLIN*      SUNNY     43  14  31 NE6       30.41S
NEW CASTLE     FAIR      42  14  32 VRB3      30.41F
BEAVER COUNTY  NOT AVBL
BUTLER*        SUNNY     41  14  33 E8        30.42S
PITTSBURGH INT MOSUNNY   43  12  28 SE7       30.40S
PITTSBURGH     SUNNY     44  13  28 E7        30.39S
INDIANA*       SUNNY     43  10  26 SE5       30.41S
LATROBE        SUNNY     45  18  33 NE6       30.41F
WASHINGTON CO* SUNNY     43  14  31 E3G16     30.42S
$$

PAZ004>006-010>012-017>019-024>028-033>037-041-042-045-046-049>053-162300-
CENTRAL PENNSYLVANIA

CITY           SKY/WX    TMP DP  RH WIND       PRES   REMARKS
BRADFORD       SUNNY     38  11  32 VRB6      30.38R
DUBOIS         SUNNY     42  10  27 SE6       30.38S
CLEARFIELD     SUNNY     43  10  26 SE5       30.40S
JOHNSTOWN      SUNNY     38  12  34 SE5       30.36R
ALTOONA        SUNNY     42  11  28 CALM      30.41R
STATE COLLEGE  SUNNY     43  10  26 SE7       30.42S
WILLIAMSPORT   SUNNY     45  11  25 N6        30.45R
SELINSGROVE    SUNNY     45  15  30 N8        30.46S
FT INDIANTOWN  SUNNY     45  15  30 NE6       30.45R
CAPITAL CITY   SUNNY     46  13  26 NW7       30.45F
HARRISBURG     MOSUNNY   47  14  26 N5        30.44S
YORK           SUNNY     45  15  30 NE7       30.44S
$$

PAZ038>040-043-044-047-048-054-055-060>062-067>071-162300-
EASTERN PENNSYLVANIA

CITY           SKY/WX    TMP DP  RH WIND       PRES   REMARKS
SCRANTON       SUNNY     40  17  39 N5        30.45R
MOUNT POCONO   SUNNY     37  15  40 NW12      30.39R
ALLENTOWN      SUNNY     46  18  32 NE7       30.44S
QUAKERTOWN*    SUNNY     45  18  33 NW10      30.44S
READING        SUNNY     47  16  29 N7G17     30.44R
LANCASTER      SUNNY     44  19  36 NE9       30.44R
COATESVILLE    NOT AVBL
POTTSTOWN      SUNNY     45  18  34 N13       30.45S
BLUE BELL      SUNNY     46  19  34 NE6       30.43R
DOYLESTOWN     SUNNY     46  16  30 N9        30.43R
WILLOW GROVE   NOT AVBL
NORTH PHILA    SUNNY     49  17  28 N13G22    30.45S
PHILADELPHIA   MOSUNNY   48  16  27 N13G21    30.44S
$$



USA.gov is the U.S. government's official web portal to all federal, state and local government web resources and services.